This is the latest recevied weather packets stored in our database for station/object HB9CEY-10. If no packets are shown the sender has not sent any weather packets the latest 1 day(s).
| Time | Temp. | Humidity | Pressure | Rain* | Wind** | Luminosity | Snow |
|---|---|---|---|---|---|---|---|
| 1777761837 | 14.44° C | 45% | 1018.9 hPa | - | - | - | - |
| 1777760937 | 15.56° C | 43% | 1018.9 hPa | - | - | - | - |
| 1777760037 | 15° C | 44% | 1018.9 hPa | - | - | - | - |
| 1777759136 | 15° C | 43% | 1019 hPa | - | - | - | - |
| 1777758236 | 15.56° C | 43% | 1019 hPa | - | - | - | - |
| 1777756436 | 15.56° C | 43% | 1018.8 hPa | - | - | - | - |
| 1777755536 | 15.56° C | 43% | 1018.8 hPa | - | - | - | - |
| 1777754636 | 16.11° C | 42% | 1018.8 hPa | - | - | - | - |
| 1777753736 | 16.67° C | 42% | 1018.8 hPa | - | - | - | - |
| 1777752836 | 16.11° C | 42% | 1018.7 hPa | - | - | - | - |
| 1777751936 | 16.67° C | 42% | 1018.6 hPa | - | - | - | - |
| 1777751036 | 16.67° C | 41% | 1018.5 hPa | - | - | - | - |
| 1777750136 | 17.22° C | 41% | 1018.3 hPa | - | - | - | - |
| 1777749236 | 17.78° C | 40% | 1018.4 hPa | - | - | - | - |
| 1777748336 | 17.78° C | 40% | 1018.3 hPa | - | - | - | - |
| 1777747436 | 18.33° C | 39% | 1018.2 hPa | - | - | - | - |
| 1777746536 | 18.89° C | 39% | 1018 hPa | - | - | - | - |
| 1777745636 | 19.44° C | 38% | 1017.9 hPa | - | - | - | - |
| 1777744736 | 19.44° C | 38% | 1017.9 hPa | - | - | - | - |
| 1777743835 | 20° C | 38% | 1017.8 hPa | - | - | - | - |
| 1777742935 | 20° C | 38% | 1017.6 hPa | - | - | - | - |
| 1777742035 | 20° C | 38% | 1017.7 hPa | - | - | - | - |
| 1777741135 | 20.56° C | 37% | 1017.7 hPa | - | - | - | - |
| 1777740235 | 20.56° C | 37% | 1017.7 hPa | - | - | - | - |
| 1777739335 | 20.56° C | 36% | 1017.8 hPa | - | - | - | - |
* Rain since midnight (hover to see other rain measurements)
** Current wind speed in m/s (hover to see current wind gust speed)